STARLINK-37290, 68546

Orbit data source: Space-Track

STARLINK-37290, 68546 is a payload satellite owned by SpaceX/Seattle (US) in LEO that was launched on Thu, 02 Apr 2026 UTC via an FALCON 9 launch vehicle from the Air Force Eastern Test Range (AFETR). Payload-class satellites include a variety of spacecraft equipped with specific instruments for various scientific and technological missions. These include communications satellites like Starlink; space stations such as the ISS; scientific satellites like the Hubble; Earth observation satellites from companies like Planet Labs, Umbra, and HawkEye 360; GPS; miniature CubeSats for education and research; and military/defense satellites.

Loading next visibility...
Identifier
68546, 2026-070E
Orbit
LEO
Country
Flag of USUS
Related business
Manufacturer
SpaceX/Seattle
Mission
Operational spacecraft
Bus & Motor
STARLINK V2MO, Unknown motor
Mass
575 kg wet, ~530 kg dry
Launch date (UTC)
2026-04-02 (2 months ago)
Launch vehicle
FALCON 9
Launch site
Air Force Eastern Test Range (AFETR)
Object type
Payload
Rocket body
Debris
Shape & HBR
Unknown shape, 14.5 m
Radar Cross Section
RCS unknown

Expand to show TLE details & history
Last TLE update: 16 hours ago

TLE from 16 hours ago
0 STARLINK-37290
1 68546U 26070E   26145.33652051  .00021454  00000-0  64422-3 0  9994
2 68546  53.1605   6.2832 0001151  80.4120 279.7012 15.34402935  8298
Epoch: 2026-05-25T08:04Z
TLE epoch observation values (Epoch: 2026-05-25T08:04:35.372Z)
Latitude
-0.00005°
Longitude
2.21001°
Altitude
463.463 km
Speed
7.636 km/s
True Right ascension
00h 25m 07s
True Declination
0° 00' 00"
Sunlit
Object was in daylight at epoch
Visualization orbit readout
Latitude
Unknown
Longitude
Unknown
Altitude
Unknown
Speed
Unknown
Apparent Right ascension
Unknown
Apparent Declination
Unknown
Sunlit
N/A
Visualization observer readout
Local Sidereal Time
09:22:18
Azimuth
Unknown
Elevation
Unknown
Doppler factor
Unknown
Orbital elements
Apogee altitude
463.739 km
Perigee altitude
462.164 km
Semi-major axis
6,841.088 km
Eccentricity
0.00012
Inclination
53.1605°
RAAN
6.2832°
Arg. of periapsis
80.412°
True anomaly
279.6882°
Mean anomaly
279.7012°
Eccentric anomaly
279.6947°
Mean motion
3.83579 °/min
Orbital period
93.85 mins
BSTAR
0.00064422
Loading maneuver chart data...
Computing Atmospheric mass density...
Loading historical data...
Loading historical data...
Loading historical data...
Loading historical data...
Loading historical data...
Loading historical data...
Loading historical data...

Documentation

Showing up to 5 results
|